Time,TemperatureF,DewpointF,PressureIn,WindDirection,WindDirectionDegrees,WindSpeedMPH,WindSpeedGustMPH,Humidity,HourlyPrecipIn,Conditions,Clouds,dailyrainin,SoftwareType,DateUTC
2013-04-24 00:03:00,34.0,32.0,29.97,NW,318,3.0,-999.0,93,-99.99,,,-99.99,,2013-04-24 04:03:00,
2013-04-24 00:12:00,34.0,32.0,29.97,NW,318,3.0,-999.0,93,-99.99,,,-99.99,,2013-04-24 04:12:00,
2013-04-24 00:23:00,34.0,32.0,29.97,NW,313,3.0,-999.0,93,-99.99,,,-99.99,,2013-04-24 04:23:00,
2013-04-24 00:33:00,34.0,32.0,29.96,NNW,342,2.0,-999.0,93,-99.99,,,-99.99,,2013-04-24 04:33:00,
2013-04-24 00:43:00,34.0,32.0,29.96,NNW,342,2.0,-999.0,93,-99.99,,,-99.99,,2013-04-24 04:43:00,
2013-04-24 00:52:00,34.0,32.0,29.96,NW,312,3.0,-999.0,94,-99.99,,,-99.99,,2013-04-24 04:52:00,
2013-04-24 01:02:00,34.0,32.0,29.96,NNW,344,3.0,-999.0,94,-99.99,,,-99.99,,2013-04-24 05:02:00,
2013-04-24 01:13:00,34.0,32.0,29.96,NNW,344,3.0,-999.0,94,-99.99,,,-99.99,,2013-04-24 05:13:00,
2013-04-24 01:22:00,34.0,32.0,29.97,WNW,302,4.0,-999.0,93,-99.99,,,-99.99,,2013-04-24 05:22:00,
2013-04-24 01:32:00,34.0,32.0,29.96,NW,325,3.0,-999.0,93,-99.99,,,-99.99,,2013-04-24 05:32:00,
2013-04-24 01:42:00,34.0,32.0,29.96,NW,325,3.0,-999.0,93,-99.99,,,-99.99,,2013-04-24 05:42:00,
2013-04-24 01:52:00,34.0,32.0,29.96,NW,309,3.0,-999.0,93,-99.99,,,-99.99,,2013-04-24 05:52:00,
2013-04-24 02:02:00,34.0,32.0,29.96,NW,309,4.0,-999.0,93,-99.99,,,-99.99,,2013-04-24 06:02:00,
2013-04-24 02:12:00,34.0,32.0,29.96,NW,309,4.0,-999.0,93,-99.99,,,-99.99,,2013-04-24 06:12:00,
2013-04-24 02:22:00,34.0,32.0,29.96,WNW,298,4.0,-999.0,93,-99.99,,,-99.99,,2013-04-24 06:22:00,
2013-04-24 02:33:00,34.0,32.0,29.95,NW,317,5.0,-999.0,93,-99.99,,,-99.99,,2013-04-24 06:33:00,
2013-04-24 02:42:00,34.0,32.0,29.95,NW,317,5.0,-999.0,93,-99.99,,,-99.99,,2013-04-24 06:42:00,
2013-04-24 02:52:00,34.0,32.0,29.96,NW,310,4.0,-999.0,93,-99.99,,,-99.99,,2013-04-24 06:52:00,
2013-04-24 03:02:00,34.0,32.0,29.96,NW,305,4.0,-999.0,92,-99.99,,,-99.99,,2013-04-24 07:02:00,
2013-04-24 03:11:00,34.0,32.0,29.96,NW,305,4.0,-999.0,92,-99.99,,,-99.99,,2013-04-24 07:11:00,
2013-04-24 03:22:00,34.0,32.0,29.95,NW,325,3.0,-999.0,92,-99.99,,,-99.99,,2013-04-24 07:22:00,
2013-04-24 03:32:00,34.0,32.0,29.95,NW,318,3.0,-999.0,93,-99.99,,,-99.99,,2013-04-24 07:32:00,
2013-04-24 03:42:00,34.0,32.0,29.95,NW,318,3.0,-999.0,93,-99.99,,,-99.99,,2013-04-24 07:42:00,
2013-04-24 03:52:00,34.0,32.0,29.96,NW,310,4.0,-999.0,92,-99.99,,,-99.99,,2013-04-24 07:52:00,
2013-04-24 04:02:00,34.0,32.0,29.96,NW,309,3.0,-999.0,92,-99.99,,,-99.99,,2013-04-24 08:02:00,
2013-04-24 04:12:00,34.0,32.0,29.96,NW,309,3.0,-999.0,92,-99.99,,,-99.99,,2013-04-24 08:12:00,
2013-04-24 04:21:00,34.0,32.0,29.96,NNW,334,3.0,-999.0,92,-99.99,,,-99.99,,2013-04-24 08:21:00,
2013-04-24 04:33:00,34.0,32.0,29.96,NNW,327,3.0,-999.0,92,-99.99,,,-99.99,,2013-04-24 08:33:00,
2013-04-24 04:42:00,34.0,32.0,29.96,NNW,327,3.0,-999.0,92,-99.99,,,-99.99,,2013-04-24 08:42:00,
2013-04-24 04:52:00,34.0,32.0,29.96,NW,318,4.0,-999.0,92,-99.99,,,-99.99,,2013-04-24 08:52:00,
2013-04-24 05:02:00,34.0,32.0,29.96,NNW,340,3.0,-999.0,92,-99.99,,,-99.99,,2013-04-24 09:02:00,
2013-04-24 05:11:00,34.0,32.0,29.96,NNW,340,3.0,-999.0,92,-99.99,,,-99.99,,2013-04-24 09:11:00,
2013-04-24 05:21:00,33.0,31.0,29.98,NNW,344,4.0,-999.0,92,-99.99,,,-99.99,,2013-04-24 09:21:00,
2013-04-24 05:33:00,33.0,31.0,29.97,NNW,345,4.0,-999.0,92,-99.99,,,-99.99,,2013-04-24 09:33:00,
2013-04-24 05:42:00,33.0,31.0,29.97,NNW,345,4.0,-999.0,92,-99.99,,,-99.99,,2013-04-24 09:42:00,
2013-04-24 05:53:00,33.0,31.0,29.98,North,355,3.0,-999.0,92,-99.99,,,-99.99,,2013-04-24 09:53:00,
2013-04-24 06:02:00,33.0,31.0,29.97,NNW,341,4.0,-999.0,92,-99.99,,,-99.99,,2013-04-24 10:02:00,
2013-04-24 06:12:00,33.0,31.0,29.97,NNW,341,4.0,-999.0,92,-99.99,,,-99.99,,2013-04-24 10:12:00,
2013-04-24 06:23:00,33.0,31.0,29.98,NNW,341,4.0,-999.0,92,-99.99,,,-99.99,,2013-04-24 10:23:00,
2013-04-24 06:33:00,33.0,31.0,29.97,NNW,333,3.0,-999.0,91,-99.99,,,-99.99,,2013-04-24 10:33:00,
2013-04-24 06:42:00,33.0,31.0,29.97,NNW,333,3.0,-999.0,91,-99.99,,,-99.99,,2013-04-24 10:42:00,
2013-04-24 06:53:00,33.0,31.0,29.99,NNW,338,3.0,-999.0,91,-99.99,,,-99.99,,2013-04-24 10:53:00,
2013-04-24 07:02:00,33.0,31.0,29.99,North,355,4.0,-999.0,91,-99.99,,,-99.99,,2013-04-24 11:02:00,
2013-04-24 07:11:00,33.0,31.0,29.99,North,355,4.0,-999.0,91,-99.99,,,-99.99,,2013-04-24 11:11:00,
2013-04-24 07:22:00,33.0,30.0,30.00,NNW,340,9.0,-999.0,87,-99.99,,,-99.99,,2013-04-24 11:22:00,
2013-04-24 07:32:00,32.0,28.0,30.01,NNW,348,6.0,-999.0,86,-99.99,,,-99.99,,2013-04-24 11:32:00,
2013-04-24 07:42:00,32.0,28.0,30.01,NNW,348,6.0,-999.0,86,-99.99,,,-99.99,,2013-04-24 11:42:00,
2013-04-24 07:53:00,32.0,28.0,30.00,North,355,6.0,-999.0,86,-99.99,,,-99.99,,2013-04-24 11:53:00,
2013-04-24 08:02:00,32.0,28.0,30.01,NNW,341,6.0,-999.0,85,-99.99,,,-99.99,,2013-04-24 12:02:00,
2013-04-24 08:12:00,32.0,28.0,30.01,NNW,341,6.0,-999.0,85,-99.99,,,-99.99,,2013-04-24 12:12:00,
2013-04-24 08:22:00,32.0,28.0,30.01,NNW,333,5.0,-999.0,85,-99.99,,,-99.99,,2013-04-24 12:22:00,
2013-04-24 08:32:00,32.0,28.0,30.02,NNE,15,4.0,-999.0,86,-99.99,,,-99.99,,2013-04-24 12:32:00,
2013-04-24 08:42:00,32.0,28.0,30.02,NNE,15,4.0,-999.0,86,-99.99,,,-99.99,,2013-04-24 12:42:00,
2013-04-24 08:52:00,33.0,29.0,30.01,NNE,22,4.0,-999.0,86,-99.99,,,-99.99,,2013-04-24 12:52:00,
2013-04-24 09:01:00,33.0,29.0,30.01,NNE,22,5.0,-999.0,85,-99.99,,,-99.99,,2013-04-24 13:01:00,
2013-04-24 09:12:00,33.0,29.0,30.01,NNE,22,5.0,-999.0,85,-99.99,,,-99.99,,2013-04-24 13:12:00,
2013-04-24 09:22:00,33.0,29.0,30.01,NNE,14,5.0,-999.0,85,-99.99,,,-99.99,,2013-04-24 13:22:00,
2013-04-24 09:32:00,33.0,29.0,30.01,North,360,5.0,-999.0,84,-99.99,,,-99.99,,2013-04-24 13:32:00,
2013-04-24 09:41:00,33.0,29.0,30.01,North,360,5.0,-999.0,84,-99.99,,,-99.99,,2013-04-24 13:41:00,
2013-04-24 09:52:00,34.0,29.0,30.01,North,11,6.0,-999.0,83,-99.99,,,-99.99,,2013-04-24 13:52:00,
2013-04-24 10:01:00,34.0,29.0,30.01,North,360,7.0,-999.0,81,-99.99,,,-99.99,,2013-04-24 14:01:00,
2013-04-24 10:11:00,34.0,29.0,30.01,North,360,7.0,-999.0,81,-99.99,,,-99.99,,2013-04-24 14:11:00,
2013-04-24 10:22:00,34.0,29.0,30.01,North,355,5.0,-999.0,82,-99.99,,,-99.99,,2013-04-24 14:22:00,
2013-04-24 10:32:00,35.0,30.0,30.01,North,360,6.0,-999.0,82,-99.99,,,-99.99,,2013-04-24 14:32:00,
2013-04-24 10:42:00,35.0,30.0,30.01,North,360,6.0,-999.0,82,-99.99,,,-99.99,,2013-04-24 14:42:00,
2013-04-24 10:52:00,34.0,29.0,30.01,NNW,338,6.0,-999.0,82,-99.99,,,-99.99,,2013-04-24 14:52:00,
2013-04-24 11:01:00,35.0,30.0,30.01,North,5,6.0,-999.0,83,-99.99,,,-99.99,,2013-04-24 15:01:00,
2013-04-24 11:11:00,35.0,30.0,30.01,North,5,6.0,-999.0,83,-99.99,,,-99.99,,2013-04-24 15:11:00,
2013-04-24 11:22:00,35.0,30.0,30.01,NNW,344,5.0,-999.0,81,-99.99,,,-99.99,,2013-04-24 15:22:00,
2013-04-24 11:33:00,35.0,30.0,30.01,North,11,6.0,-999.0,81,-99.99,,,-99.99,,2013-04-24 15:33:00,
2013-04-24 11:43:00,35.0,30.0,30.01,North,11,6.0,-999.0,81,-99.99,,,-99.99,,2013-04-24 15:43:00,
2013-04-24 11:53:00,36.0,30.0,30.01,NW,311,6.0,-999.0,80,-99.99,,,-99.99,,2013-04-24 15:53:00,
2013-04-24 12:03:00,36.0,30.0,30.01,NW,311,6.0,-999.0,80,-99.99,,,-99.99,,2013-04-24 16:03:00,
2013-04-24 12:12:00,36.0,30.0,30.01,NW,311,6.0,-999.0,80,-99.99,,,-99.99,,2013-04-24 16:12:00,
2013-04-24 12:23:00,36.0,30.0,29.99,North,350,8.0,-999.0,78,-99.99,,,-99.99,,2013-04-24 16:23:00,
2013-04-24 12:32:00,37.0,30.0,29.99,NNE,27,8.0,-999.0,76,-99.99,,,-99.99,,2013-04-24 16:32:00,
2013-04-24 12:42:00,37.0,30.0,29.99,NNE,27,8.0,-999.0,76,-99.99,,,-99.99,,2013-04-24 16:42:00,
2013-04-24 12:53:00,37.0,30.0,29.99,NNE,14,7.0,-999.0,77,-99.99,,,-99.99,,2013-04-24 16:53:00,
2013-04-24 13:02:00,38.0,31.0,29.99,NNE,19,8.0,-999.0,76,-99.99,,,-99.99,,2013-04-24 17:02:00,
2013-04-24 13:12:00,38.0,31.0,29.99,NNE,19,8.0,-999.0,76,-99.99,,,-99.99,,2013-04-24 17:12:00,
2013-04-24 13:22:00,38.0,31.0,29.99,North,360,7.0,-999.0,76,-99.99,,,-99.99,,2013-04-24 17:22:00,
2013-04-24 13:32:00,39.0,30.0,29.98,NE,38,7.0,-999.0,71,-99.99,,,-99.99,,2013-04-24 17:32:00,
2013-04-24 13:42:00,39.0,30.0,29.98,NE,38,7.0,-999.0,71,-99.99,,,-99.99,,2013-04-24 17:42:00,
2013-04-24 13:52:00,39.0,31.0,29.99,NE,52,6.0,-999.0,72,-99.99,,,-99.99,,2013-04-24 17:52:00,
2013-04-24 14:02:00,39.0,31.0,29.98,NNW,336,4.0,-999.0,72,-99.99,,,-99.99,,2013-04-24 18:02:00,
2013-04-24 14:12:00,39.0,31.0,29.98,NNW,336,4.0,-999.0,72,-99.99,,,-99.99,,2013-04-24 18:12:00,
2013-04-24 14:22:00,40.0,32.0,29.98,North,350,5.0,-999.0,73,-99.99,,,-99.99,,2013-04-24 18:22:00,
2013-04-24 14:33:00,40.0,31.0,29.96,NNW,346,5.0,-999.0,71,-99.99,,,-99.99,,2013-04-24 18:33:00,
2013-04-24 14:42:00,40.0,31.0,29.96,NNW,346,5.0,-999.0,71,-99.99,,,-99.99,,2013-04-24 18:42:00,
2013-04-24 14:52:00,42.0,31.0,29.96,NE,40,8.0,-999.0,64,-99.99,,,-99.99,,2013-04-24 18:52:00,
2013-04-24 15:02:00,43.0,31.0,29.95,WNW,298,5.0,-999.0,62,-99.99,,,-99.99,,2013-04-24 19:02:00,
2013-04-24 15:11:00,43.0,31.0,29.95,WNW,298,5.0,-999.0,62,-99.99,,,-99.99,,2013-04-24 19:11:00,
2013-04-24 15:22:00,43.0,33.0,29.96,North,355,6.0,-999.0,67,-99.99,,,-99.99,,2013-04-24 19:22:00,
2013-04-24 15:32:00,43.0,31.0,29.95,NW,306,5.0,-999.0,62,-99.99,,,-99.99,,2013-04-24 19:32:00,
2013-04-24 15:42:00,43.0,31.0,29.95,NW,306,5.0,-999.0,62,-99.99,,,-99.99,,2013-04-24 19:42:00,
2013-04-24 15:52:00,43.0,32.0,29.96,WSW,250,8.0,-999.0,64,-99.99,,,-99.99,,2013-04-24 19:52:00,
2013-04-24 16:02:00,43.0,33.0,29.96,West,263,8.0,-999.0,67,-99.99,,,-99.99,,2013-04-24 20:02:00,
2013-04-24 16:11:00,43.0,33.0,29.96,West,263,8.0,-999.0,67,-99.99,,,-99.99,,2013-04-24 20:11:00,
2013-04-24 16:22:00,43.0,32.0,29.96,West,281,9.0,-999.0,65,-99.99,,,-99.99,,2013-04-24 20:22:00,
2013-04-24 16:32:00,42.0,31.0,29.96,NNW,343,10.0,-999.0,64,-99.99,,,-99.99,,2013-04-24 20:32:00,
2013-04-24 16:42:00,42.0,31.0,29.96,NNW,343,10.0,-999.0,64,-99.99,,,-99.99,,2013-04-24 20:42:00,
2013-04-24 16:52:00,42.0,30.0,29.96,West,269,10.0,-999.0,61,-99.99,,,-99.99,,2013-04-24 20:52:00,
2013-04-24 17:02:00,42.0,30.0,29.97,WNW,298,11.0,-999.0,62,-99.99,,,-99.99,,2013-04-24 21:02:00,
2013-04-24 17:12:00,42.0,30.0,29.97,WNW,298,11.0,-999.0,62,-99.99,,,-99.99,,2013-04-24 21:12:00,
2013-04-24 17:22:00,42.0,30.0,29.97,West,272,9.0,-999.0,62,-99.99,,,-99.99,,2013-04-24 21:22:00,
2013-04-24 17:33:00,42.0,30.0,29.98,WNW,298,9.0,-999.0,61,-99.99,,,-99.99,,2013-04-24 21:33:00,
2013-04-24 17:42:00,42.0,30.0,29.98,WNW,298,9.0,-999.0,61,-99.99,,,-99.99,,2013-04-24 21:42:00,
2013-04-24 17:53:00,42.0,30.0,29.98,WNW,300,9.0,-999.0,63,-99.99,,,-99.99,,2013-04-24 21:53:00,
2013-04-24 18:03:00,42.0,29.0,29.98,WNW,302,10.0,-999.0,59,-99.99,,,-99.99,,2013-04-24 22:03:00,
2013-04-24 18:12:00,42.0,29.0,29.98,WNW,302,10.0,-999.0,59,-99.99,,,-99.99,,2013-04-24 22:12:00,
2013-04-24 18:22:00,42.0,30.0,29.99,WNW,289,9.0,-999.0,61,-99.99,,,-99.99,,2013-04-24 22:22:00,
2013-04-24 18:33:00,42.0,28.0,29.99,NNW,330,9.0,-999.0,57,-99.99,,,-99.99,,2013-04-24 22:33:00,
2013-04-24 18:42:00,42.0,28.0,29.99,NNW,330,9.0,-999.0,57,-99.99,,,-99.99,,2013-04-24 22:42:00,
2013-04-24 18:52:00,42.0,28.0,30.00,NW,315,8.0,-999.0,58,-99.99,,,-99.99,,2013-04-24 22:52:00,
2013-04-24 19:02:00,41.0,26.0,30.00,NW,304,9.0,-999.0,55,-99.99,,,-99.99,,2013-04-24 23:02:00,
2013-04-24 19:12:00,41.0,26.0,30.00,NW,304,9.0,-999.0,55,-99.99,,,-99.99,,2013-04-24 23:12:00,
2013-04-24 19:22:00,41.0,27.0,30.01,NW,308,10.0,-999.0,56,-99.99,,,-99.99,,2013-04-24 23:22:00,
2013-04-24 19:32:00,41.0,27.0,30.01,WNW,283,9.0,-999.0,58,-99.99,,,-99.99,,2013-04-24 23:32:00,
2013-04-24 19:42:00,41.0,27.0,30.01,WNW,283,9.0,-999.0,58,-99.99,,,-99.99,,2013-04-24 23:42:00,
2013-04-24 19:52:00,40.0,27.0,30.02,NW,314,8.0,-999.0,59,-99.99,,,-99.99,,2013-04-24 23:52:00,
2013-04-24 20:02:00,39.0,26.0,30.02,WNW,292,7.0,-999.0,59,-99.99,,,-99.99,,2013-04-25 00:02:00,
2013-04-24 20:12:00,39.0,26.0,30.02,WNW,292,7.0,-999.0,59,-99.99,,,-99.99,,2013-04-25 00:12:00,
2013-04-24 20:23:00,39.0,27.0,30.02,WNW,303,4.0,-999.0,62,-99.99,,,-99.99,,2013-04-25 00:23:00,
2013-04-24 20:32:00,38.0,26.0,30.03,NW,309,4.0,-999.0,61,-99.99,,,-99.99,,2013-04-25 00:32:00,
2013-04-24 20:42:00,38.0,26.0,30.03,NW,309,4.0,-999.0,61,-99.99,,,-99.99,,2013-04-25 00:42:00,
2013-04-24 20:52:00,37.0,25.0,30.03,NNW,344,4.0,-999.0,61,-99.99,,,-99.99,,2013-04-25 00:52:00,
2013-04-24 21:02:00,36.0,25.0,30.03,North,350,1.0,-999.0,63,-99.99,,,-99.99,,2013-04-25 01:02:00,
2013-04-24 21:11:00,36.0,25.0,30.03,North,350,1.0,-999.0,63,-99.99,,,-99.99,,2013-04-25 01:11:00,
2013-04-24 21:23:00,36.0,24.0,30.03,NE,37,3.0,-999.0,62,-99.99,,,-99.99,,2013-04-25 01:23:00,
2013-04-24 21:32:00,35.0,25.0,30.05,WSW,240,3.0,-999.0,67,-99.99,,,-99.99,,2013-04-25 01:32:00,
2013-04-24 21:42:00,35.0,25.0,30.05,WSW,240,3.0,-999.0,67,-99.99,,,-99.99,,2013-04-25 01:42:00,
2013-04-24 21:53:00,34.0,25.0,30.06,WSW,240,0.0,-999.0,68,-99.99,,,-99.99,,2013-04-25 01:53:00,
2013-04-24 22:02:00,32.0,25.0,30.06,WSW,257,1.0,-999.0,74,-99.99,,,-99.99,,2013-04-25 02:02:00,
2013-04-24 22:11:00,32.0,25.0,30.06,WSW,257,1.0,-999.0,74,-99.99,,,-99.99,,2013-04-25 02:11:00,
2013-04-24 22:22:00,32.0,26.0,30.07,WSW,258,0.0,-999.0,78,-99.99,,,-99.99,,2013-04-25 02:22:00,
2013-04-24 22:32:00,31.0,25.0,30.08,WSW,257,0.0,-999.0,79,-99.99,,,-99.99,,2013-04-25 02:32:00,
2013-04-24 22:42:00,31.0,25.0,30.08,WSW,257,0.0,-999.0,79,-99.99,,,-99.99,,2013-04-25 02:42:00,
2013-04-24 22:52:00,31.0,25.0,30.08,WSW,257,0.0,-999.0,79,-99.99,,,-99.99,,2013-04-25 02:52:00,
2013-04-24 23:02:00,30.0,25.0,30.08,WSW,257,0.0,-999.0,82,-99.99,,,-99.99,,2013-04-25 03:02:00,
2013-04-24 23:11:00,30.0,25.0,30.08,WSW,257,0.0,-999.0,82,-99.99,,,-99.99,,2013-04-25 03:11:00,
2013-04-24 23:22:00,30.0,25.0,30.08,WSW,257,0.0,-999.0,82,-99.99,,,-99.99,,2013-04-25 03:22:00,
2013-04-24 23:33:00,29.0,25.0,30.09,WSW,258,0.0,-999.0,83,-99.99,,,-99.99,,2013-04-25 03:33:00,
2013-04-24 23:43:00,29.0,25.0,30.09,WSW,258,0.0,-999.0,83,-99.99,,,-99.99,,2013-04-25 03:43:00,
2013-04-24 23:52:00,29.0,25.0,30.10,WSW,258,0.0,-999.0,85,-99.99,,,-99.99,,2013-04-25 03:52:00,